Date String (YYYY-MM-DD hh:mm:ss) UTC,Instrument flags,absolute air pressure of the measurement (hPa),sample flow rate (lpm),inlet stack bypass flow (lpm),air temperature of the measurement (°C),ambient temperature measured by the external sensor (°C),aerosol sample conditioner tube jacket temperature (°C),OPC LED temperature (°C),internal box temperature (°C),relative humidity of the measurement (%),span deviation,mass concentration of particles derived from Lorenz-Mie calculation of OPC scattering (μg/m³),mass concentration of particles derived from Lorenz-Mie calculation of OPC scattering (μg/m³),mass concentration of particles derived from Lorenz-Mie calculation of OPC scattering (μg/m³)
DateTimeUTC,F1_M11,P_M11,Q1_M11,Q2_M11,T1_M11,T2_M11,T3_M11,T4_M11,T5_M11,U1_M11,ZSPAN_M11,X0_M11,X2_M11,X1_M11
2023-09-15 06:00:00,SystemResetWarning,0836.5,4.99,000.00,028.3,026.9,000.0,036.8,029.9,31.9,0000.0,0002.48,0001.74,0001.42
2023-09-15 06:01:00,SystemResetWarning,0836.5,5.00,000.00,028.3,026.9,000.0,036.8,029.9,31.8,0000.0,0002.42,0001.71,0001.38
2023-09-15 06:02:00,SystemResetWarning,0836.5,5.00,000.00,028.3,026.9,000.0,036.8,029.9,31.8,0000.0,0002.38,0001.67,0001.36
2023-09-15 06:03:00,SystemResetWarning,0836.5,4.99,000.00,028.3,026.9,000.0,036.8,029.8,31.9,0000.0,0002.38,0001.68,0001.35
2023-09-15 06:04:00,SystemResetWarning,0836.4,5.00,000.00,028.3,026.9,000.0,036.8,029.8,32.0,0000.0,0002.28,0001.64,0001.34
2023-09-15 06:05:00,SystemResetWarning,0836.5,5.01,000.00,028.3,026.9,000.0,036.8,029.8,32.0,0000.0,0002.22,0001.61,0001.32
2023-09-15 06:06:00,SystemResetWarning,0836.5,5.01,000.00,028.3,026.9,000.0,036.8,029.9,32.0,0000.0,0002.32,0001.64,0001.32
2023-09-15 06:07:00,SystemResetWarning,0836.5,4.99,000.00,028.3,026.9,000.0,036.8,029.8,32.1,0000.0,0002.37,0001.65,0001.31
2023-09-15 06:08:00,SystemResetWarning,0836.4,4.99,000.00,028.3,026.9,000.0,036.8,029.8,32.1,0000.0,0002.30,0001.62,0001.32
2023-09-15 06:09:00,SystemResetWarning,0836.5,4.99,000.00,028.3,026.9,000.0,036.8,029.8,32.2,0000.0,0002.34,0001.64,0001.32
2023-09-15 06:10:00,SystemResetWarning,0836.4,5.02,000.00,028.2,026.9,000.0,036.8,029.8,32.3,0000.0,0002.37,0001.66,0001.33
2023-09-15 06:11:00,SystemResetWarning,0836.5,5.00,000.00,028.3,026.9,000.0,036.8,029.8,32.4,0000.0,0002.28,0001.63,0001.32
2023-09-15 06:12:00,SystemResetWarning,0836.6,4.98,000.00,028.3,026.9,000.0,036.8,029.9,32.4,0000.0,0002.27,0001.65,0001.34
2023-09-15 06:13:00,SystemResetWarning,0836.6,5.01,000.00,028.3,027.0,000.0,036.8,029.9,32.4,0000.0,0002.30,0001.66,0001.35
2023-09-15 06:14:00,SystemResetWarning,0836.6,5.01,000.00,028.3,027.0,000.0,036.8,029.9,32.4,0000.0,0002.29,0001.66,0001.36
2023-09-15 06:15:00,SystemResetWarning,0836.7,4.99,000.00,028.3,027.0,000.0,036.8,029.9,32.6,0000.0,0002.28,0001.65,0001.35
2023-09-15 06:16:00,SystemResetWarning,0836.6,5.00,000.00,028.3,027.0,000.0,036.8,029.9,32.6,0000.0,0002.35,0001.69,0001.36
2023-09-15 06:17:00,SystemResetWarning,0836.6,5.00,000.00,028.3,027.0,000.0,036.8,029.9,32.6,0000.0,0002.24,0001.66,0001.36
2023-09-15 06:18:00,SystemResetWarning,0836.6,5.00,000.00,028.3,027.0,000.0,036.8,029.9,32.6,0000.0,0002.10,0001.63,0001.38
2023-09-15 06:19:00,SystemResetWarning,0836.6,5.00,000.00,028.3,027.1,000.0,036.8,029.9,32.6,0000.0,0002.12,0001.63,0001.37
2023-09-15 06:20:00,SystemResetWarning,0836.6,5.00,000.00,028.3,027.1,000.0,036.8,030.0,32.6,0000.0,0002.06,0001.60,0001.37
2023-09-15 06:21:00,SystemResetWarning,0836.6,5.00,000.00,028.4,027.1,000.0,036.8,030.0,32.5,0000.0,0001.99,0001.57,0001.36
2023-09-15 06:22:00,SystemResetWarning,0836.6,5.00,000.00,028.4,027.1,000.0,036.8,030.0,32.5,0000.0,0002.07,0001.62,0001.36
2023-09-15 06:23:00,SystemResetWarning,0836.6,4.99,000.00,028.4,027.1,000.0,036.8,030.0,32.5,0000.0,0002.07,0001.62,0001.36
2023-09-15 06:24:00,SystemResetWarning,0836.6,5.00,000.00,028.4,027.1,000.0,036.8,030.0,32.4,0000.0,0002.05,0001.62,0001.37
2023-09-15 06:25:00,SystemResetWarning,0836.5,5.01,000.00,028.4,027.1,000.0,036.8,030.0,32.4,0000.0,0002.05,0001.63,0001.38
2023-09-15 06:26:00,SystemResetWarning,0836.6,5.00,000.00,028.4,027.1,000.0,036.8,030.0,32.3,0000.0,0002.11,0001.66,0001.40
2023-09-15 06:27:00,SystemResetWarning,0836.5,4.99,000.00,028.3,027.0,000.0,036.8,030.0,32.4,0000.0,0002.08,0001.67,0001.43
2023-09-15 06:28:00,SystemResetWarning,0836.5,4.99,000.00,028.3,027.0,000.0,036.8,029.9,32.4,0000.0,0002.16,0001.71,0001.45
2023-09-15 06:29:00,SystemResetWarning,0836.5,5.01,000.00,028.3,027.0,000.0,036.8,029.9,32.4,0000.0,0002.26,0001.76,0001.47
2023-09-15 06:30:00,SystemResetWarning,0836.6,5.01,000.00,028.3,026.9,000.0,036.8,029.9,32.3,0000.0,0002.43,0001.80,0001.51
2023-09-15 06:31:00,SystemResetWarning,0836.5,5.00,000.00,028.3,026.9,000.0,036.8,029.9,32.3,0000.0,0002.56,0001.84,0001.53
2023-09-15 06:32:00,SystemResetWarning,0836.5,4.99,000.00,028.3,026.9,000.0,036.8,029.9,32.4,0000.0,0002.66,0001.89,0001.55
2023-09-15 06:33:00,SystemResetWarning,0836.5,5.00,000.00,028.3,026.9,000.0,036.8,029.9,32.4,0000.0,0002.63,0001.86,0001.55
2023-09-15 06:34:00,SystemResetWarning,0836.5,5.00,000.00,028.3,026.9,000.0,036.8,029.9,32.4,0000.0,0002.65,0001.86,0001.56
2023-09-15 06:35:00,SystemResetWarning,0836.5,4.99,000.00,028.3,026.9,000.0,036.8,029.9,32.4,0000.0,0002.69,0001.88,0001.57
2023-09-15 06:36:00,SystemResetWarning,0836.5,5.00,000.00,028.3,026.9,000.0,036.8,029.9,32.4,0000.0,0002.65,0001.87,0001.57
2023-09-15 06:37:00,SystemResetWarning,0836.4,5.01,000.00,028.3,026.9,000.0,036.8,029.9,32.5,0000.0,0002.64,0001.84,0001.55
2023-09-15 06:38:00,SystemResetWarning,0836.5,5.00,000.00,028.3,026.9,000.0,036.8,029.9,32.5,0000.0,0002.70,0001.81,0001.52
2023-09-15 06:39:00,SystemResetWarning,0836.5,5.00,000.00,028.3,026.9,000.0,036.8,029.9,32.5,0000.0,0002.66,0001.79,0001.50
2023-09-15 06:40:00,SystemResetWarning,0836.4,5.00,000.00,028.3,026.9,000.0,036.8,029.9,32.5,0000.0,0002.63,0001.76,0001.46
2023-09-15 06:41:00,SystemResetWarning,0836.4,5.00,000.00,028.3,026.8,000.0,036.8,029.9,32.6,0000.0,0002.45,0001.71,0001.44
2023-09-15 06:42:00,SystemResetWarning,0836.4,5.00,000.00,028.3,026.8,000.0,036.8,029.9,32.6,0000.0,0002.75,0001.70,0001.41
2023-09-15 06:43:00,SystemResetWarning,0836.5,5.00,000.00,028.3,026.8,000.0,036.8,029.9,32.6,0000.0,0003.62,0001.64,0001.40
2023-09-15 06:44:00,SystemResetWarning,0836.5,5.01,000.00,028.3,026.9,000.0,036.8,029.9,32.7,0000.0,0003.65,0001.65,0001.40
2023-09-15 06:45:00,SystemResetWarning,0836.5,5.00,000.00,028.3,026.9,000.0,036.8,029.9,32.7,0000.0,0003.67,0001.67,0001.41
2023-09-15 06:46:00,SystemResetWarning,0836.5,4.99,000.00,028.3,026.9,000.0,036.8,029.9,32.7,0000.0,0003.66,0001.68,0001.42
2023-09-15 06:47:00,SystemResetWarning,0836.5,5.00,000.00,028.3,026.9,000.0,036.8,029.9,32.7,0000.0,0004.69,0001.74,0001.45
2023-09-15 06:48:00,SystemResetWarning,0836.4,5.00,000.00,028.3,027.0,000.0,036.8,029.9,32.6,0000.0,0004.83,0001.80,0001.49
2023-09-15 06:49:00,SystemResetWarning,0836.4,5.00,000.00,028.3,026.9,000.0,036.8,029.9,32.6,0000.0,0004.91,0001.84,0001.53
2023-09-15 06:50:00,SystemResetWarning,0836.4,5.00,000.00,028.3,026.9,000.0,036.8,029.9,32.6,0000.0,0004.99,0001.88,0001.55
2023-09-15 06:51:00,SystemResetWarning,0836.4,5.00,000.00,028.3,026.9,000.0,036.8,029.9,32.6,0000.0,0005.07,0001.92,0001.59
2023-09-15 06:52:00,SystemResetWarning,0836.4,5.00,000.00,028.3,026.9,000.0,036.8,029.9,32.6,0000.0,0005.15,0001.97,0001.63
2023-09-15 06:53:00,SystemResetWarning,0836.3,5.00,000.00,028.3,026.9,000.0,036.8,029.9,32.5,0000.0,0004.90,0002.04,0001.68
2023-09-15 06:54:00,SystemResetWarning,0836.4,5.00,000.00,028.3,026.9,000.0,036.8,029.9,32.5,0000.0,0003.99,0002.13,0001.74
2023-09-15 06:55:00,SystemResetWarning,0836.4,5.00,000.00,028.3,026.9,000.0,036.8,029.9,32.5,0000.0,0004.06,0002.19,0001.79
2023-09-15 06:56:00,SystemResetWarning,0836.4,5.01,000.00,028.3,027.0,000.0,036.8,029.9,32.5,0000.0,0004.05,0002.19,0001.81
2023-09-15 06:57:00,SystemResetWarning,0836.3,5.00,000.00,028.3,026.9,000.0,036.8,029.9,32.4,0000.0,0004.07,0002.21,0001.80
2023-09-15 06:58:00,SystemResetWarning,0836.3,5.01,000.00,028.3,026.9,000.0,036.8,029.9,32.4,0000.0,0003.24,0002.23,0001.81
2023-09-15 06:59:00,SystemResetWarning,0836.3,5.00,000.00,028.3,026.9,000.0,036.8,029.9,32.4,0000.0,0003.14,0002.24,0001.80
